Regional Weather Roundup
Issued by NWS

Home | Current Version | Previous Version | Graphics & Text | Print | Product List | Glossary Off
Versions: 1 2 3 4 5 6 7 8 9 10 11 12 13 14 15 16 17 18 19 20 21 22 23 24 25 26 27 28 29 30 31 32 33 34 35 36 37 38 39 40 41 42 43 44 45 46 47 48 49 50

000
ASUS45 KCYS 312110
RWRWY

WYOMING REGIONAL WEATHER ROUNDUP
NATIONAL WEATHER SERVICE CHEYENNE WY
200 PM MST SAT JAN 31 2015

NOTE:  "FAIR" INDICATES FEW OR NO CLOUDS BELOW 12,000 FEET
WITH NO SIGNIFICANT WEATHER AND/OR OBSTRUCTIONS TO VISIBILITY.

WYZ001-312200-
YELLOWSTONE NATIONAL PARK

CITY           SKY/WX    TMP DP  RH WIND       PRES   REMARKS
LK YELLOWSTONE   N/A     17   5  59 SE3       29.95F
W YELLOWSTONE  NOT AVBL

$$
WYZ002>013-054>058-071-098>099-312200-
NORTHERN WYOMING

CITY           SKY/WX    TMP DP  RH WIND       PRES   REMARKS
JACKSON        SUNNY     19  14  79 VRB6      29.99F WCI  11
CODY           FAIR      37  21  52 N22G28    29.92R WCI  27
GREYBULL       CLOUDY    29  28  96 SW3       29.93S FOG
WORLAND        FAIR      31  27  85 CALM      29.91S
SHERIDAN       CLOUDY    30  22  72 NW18G29   30.00R WCI  18
BUFFALO        FAIR      32  21  64 N28G46    29.89R WCI  18
GILLETTE       FAIR      39  23  52 N18       29.86S WCI  30
HULETT           N/A    N/A N/A N/A MISG        N/A
NEWCASTLE      FAIR      41  23  48 S3        29.87F

$$
WYZ014>020-022>026-101>103-312200-
CENTRAL WYOMING

CITY           SKY/WX    TMP DP  RH WIND       PRES   REMARKS
BIG PINEY      FAIR      39  13  34 N23       29.92F WCI  28
PINEDALE       FAIR      32  18  55 NW24G32   29.91R WCI  19
DUBOIS         FAIR      39   0  19 NW17G25   29.87F WCI  30
LANDER         FAIR      39  27  62 SE5       29.87F
RIVERTON       FAIR      38  23  55 SW3       29.89F
CASPER         FAIR      42  17  36 N13G21    29.86S
DOUGLAS        FAIR      45  23  42 N10       29.83F

$$
WYZ021-027>030-104>119-312200-
SOUTHERN WYOMING

CITY           SKY/WX    TMP DP  RH WIND       PRES   REMARKS
EVANSTON       FAIR      40  29  64 W9        29.99S WCI  34
KEMMERER       FAIR      36  23  60 W10G16    29.96F WCI  28
FORT BRIDGER   FAIR      40  27  61 W17G30    29.99R WCI  31
ROCK SPRINGS   NOT AVBL
DIXON          FAIR      38  28  65 SW6       29.91F WCI  34
RAWLINS        FAIR      41  23  48 W14G22    29.84F
SARATOGA       FAIR      37  28  70 CALM      29.84F
LARAMIE        CLOUDY    33  27  78 NW6       29.79F WCI  28
CHEYENNE       PTSUNNY   38  27  64 W3        29.78F
TORRINGTON     MOSUNNY   70  59  68 NW10      29.89R
PINE BLUFFS    FLURRIES  32  32 100 N8        29.80F WCI  25

$$



USA.gov is the U.S. government's official web portal to all federal, state and local government web resources and services.